Weather History for Marysville, OH

Change the Weather History Date:

Tuesday, December 24, 2013

  Actual Average (KDLZ) Record (KDLZ)
Temperature  
Mean Temperature 17 °F -  
Max Temperature 25 °F 36 °F 60 °F (1964)
Min Temperature 9 °F 20 °F -25 °F (1989)
Degree Days  
Heating Degree Days 48    
Moisture  
Dew Point 9 °F    
Average Humidity 75    
Maximum Humidity 85    
Minimum Humidity 68    
Precipitation  
Precipitation 0.00 in - - ()
Sea Level Pressure  
Sea Level Pressure 30.42 in    
Wind  
Wind Speed 10 mph (WNW)    
Max Wind Speed 17 mph    
Max Gust Speed 24 mph    
Visibility 8 miles    
Events      
Averages and records for this station are not official NWS values.
T = Trace of Precipitation, MM = Missing Value Source: NWS Daily Summary

Daily Weather History Graph

Daily Weather History Graph

Search for Another Location

Airport:

Trip Planner

Search our weather history database for the weather conditions in past years. The results will help you decide how hot, cold, wet, or windy it might be!

Date:

Astronomy

Dec. 24, 2013 Rise Set
Actual Time 7:53 AM EST 5:12 PM EST
Civil Twilight 7:23 AM EST 5:43 PM EST
Nautical Twilight 6:48 AM EST 6:17 PM EST
Astronomical Twilight 6:15 AM EST 6:50 PM EST
Moon No Moon Rise 11:46 AM EST (12/24)
Length of Visible Light 10h 20m
Length of Day
9h 18m
Waning Gibbous, 59% of the Moon is Illuminated
Dec 24
Waning Gibbous
Dec 25
Last Quarter
Jan 1
New
Jan 7
First Quarter
Jan 15
Full

Hourly Weather History & Observations

Time (EST) Temp. Windchill Dew Point Humidity Pressure Visibility Wind Dir Wind Speed Gust Speed Precip Events Conditions
12:14 AM 25.9 °F 15.3 °F 17.4 °F 70% 30.32 in 10.0 mi West 11.5 mph - N/A   Overcast
12:35 AM 25.7 °F 16.4 °F 17.8 °F 72% 30.31 in 10.0 mi WNW 9.2 mph - N/A   Overcast
12:54 AM 25.7 °F 18.0 °F 18.9 °F 75% 30.30 in 7.0 mi WNW 6.9 mph - N/A   Overcast
1:14 AM 25.7 °F 14.6 °F 19.6 °F 78% 30.30 in 4.0 mi WNW 12.7 mph 16.1 mph N/A   Overcast
1:35 AM 24.1 °F 14.4 °F 19.4 °F 82% 30.30 in 3.0 mi NNW 9.2 mph - N/A   Overcast
1:54 AM 23.5 °F 14.5 °F 19.4 °F 84% 30.30 in 2.5 mi NNW 8.1 mph - N/A   Overcast
2:14 AM 22.8 °F 12.9 °F 18.9 °F 85% 30.31 in 2.0 mi NW 9.2 mph - N/A   Overcast
2:35 AM 21.6 °F 10.6 °F 17.1 °F 83% 30.31 in 1.8 mi NW 10.4 mph 17.3 mph N/A   Overcast
2:54 AM 20.7 °F 8.8 °F 16.0 °F 82% 30.31 in 3.0 mi WNW 11.5 mph - N/A   Overcast
3:14 AM 20.7 °F 10.2 °F 16.3 °F 83% 30.33 in 4.0 mi NW 9.2 mph - N/A   Overcast
3:35 AM 19.4 °F 7.2 °F 14.2 °F 80% 30.33 in 5.0 mi NW 11.5 mph 17.3 mph N/A   Overcast
3:54 AM 19.0 °F 8.2 °F 14.0 °F 81% 30.33 in 5.0 mi NW 9.2 mph - N/A   Overcast
4:14 AM 18.3 °F 6.6 °F 12.0 °F 76% 30.33 in 10.0 mi NW 10.4 mph 17.3 mph N/A   Overcast
4:35 AM 17.8 °F 2.4 °F 10.9 °F 75% 30.33 in 10.0 mi NW 17.3 mph - N/A   Overcast
4:54 AM 16.9 °F 2.3 °F 9.7 °F 73% 30.34 in 10.0 mi WNW 15.0 mph 24.2 mph N/A   Overcast
5:14 AM 14.0 °F -1.4 °F 6.3 °F 71% 30.35 in 10.0 mi NW 15.0 mph 20.7 mph N/A   Scattered Clouds
5:34 AM 12.7 °F -1.1 °F 4.1 °F 68% 30.35 in 10.0 mi NW 11.5 mph 18.4 mph N/A   Clear
5:54 AM 12.2 °F -3.1 °F 3.9 °F 69% 30.36 in 10.0 mi WNW 13.8 mph - N/A   Clear
6:15 AM 11.5 °F -4.7 °F 4.3 °F 73% 30.36 in 10.0 mi NW 15.0 mph 19.6 mph N/A   Clear
6:34 AM 10.9 °F -0.8 °F 3.7 °F 73% 30.37 in 10.0 mi NW 8.1 mph - N/A   Clear
6:54 AM 10.4 °F -2.4 °F 4.3 °F 76% 30.37 in 10.0 mi NW 9.2 mph - N/A   Clear
7:14 AM 9.9 °F -1.1 °F 4.6 °F 79% 30.38 in 10.0 mi WNW 6.9 mph - N/A   Clear
7:34 AM 10.4 °F -4.1 °F 4.8 °F 78% 30.39 in 10.0 mi WNW 11.5 mph - N/A   Mostly Cloudy
7:55 AM 10.2 °F -6.3 °F 4.1 °F 76% 30.40 in 7.0 mi WNW 15.0 mph 24.2 mph N/A   Overcast
8:14 AM 10.4 °F -4.8 °F 5.0 °F 79% 30.41 in 5.0 mi WNW 12.7 mph - N/A   Overcast
8:34 AM 10.9 °F -4.1 °F 4.8 °F 76% 30.42 in 3.0 mi NW 12.7 mph 21.9 mph N/A   Overcast
8:55 AM 11.3 °F -2.9 °F 5.7 °F 78% 30.43 in 3.0 mi WNW 11.5 mph - N/A   Overcast
9:14 AM 11.1 °F -3.9 °F 4.3 °F 74% 30.44 in 10.0 mi NNW 12.7 mph 18.4 mph N/A   Overcast
9:34 AM 12.6 °F -2.0 °F 4.8 °F 71% 30.45 in 7.0 mi NNW 12.7 mph 17.3 mph N/A   Overcast
9:55 AM 12.2 °F -3.1 °F 4.5 °F 71% 30.45 in 10.0 mi NW 13.8 mph 18.4 mph N/A   Overcast
10:14 AM 13.1 °F 0.1 °F 4.6 °F 69% 30.46 in 10.0 mi NW 10.4 mph - N/A   Scattered Clouds
10:34 AM 13.8 °F 1.8 °F 5.0 °F 68% 30.46 in 10.0 mi WNW 9.2 mph - N/A   Clear
10:55 AM 14.7 °F 2.1 °F 5.9 °F 68% 30.46 in 10.0 mi WNW 10.4 mph - N/A   Scattered Clouds
11:14 AM 14.5 °F 2.7 °F 5.7 °F 68% 30.47 in 10.0 mi WNW 9.2 mph 16.1 mph N/A   Mostly Cloudy
11:34 AM 14.5 °F 4.6 °F 5.7 °F 68% 30.47 in 10.0 mi WNW 6.9 mph - N/A   Scattered Clouds
11:55 AM 15.3 °F 5.4 °F 6.6 °F 69% 30.47 in 10.0 mi NW 6.9 mph - N/A   Scattered Clouds
12:14 PM 14.9 °F 3.1 °F 7.2 °F 71% 30.47 in 7.0 mi West 9.2 mph - N/A   Overcast
12:35 PM 16.0 °F 3.6 °F 7.7 °F 70% 30.47 in 10.0 mi West 10.4 mph - N/A   Mostly Cloudy
12:54 PM 16.7 °F 4.5 °F 7.9 °F 68% 30.47 in 10.0 mi West 10.4 mph - N/A   Mostly Cloudy
1:14 PM 16.7 °F 4.5 °F 7.9 °F 68% 30.47 in 10.0 mi NNW 10.4 mph 17.3 mph N/A   Overcast
1:35 PM 16.9 °F 4.1 °F 8.1 °F 68% 30.47 in 10.0 mi NW 11.5 mph 16.1 mph N/A   Mostly Cloudy
1:54 PM 16.0 °F 3.6 °F 7.9 °F 70% 30.47 in 10.0 mi NW 10.4 mph - N/A   Mostly Cloudy
2:14 PM 15.8 °F 3.4 °F 7.5 °F 70% 30.47 in 10.0 mi WNW 10.4 mph 16.1 mph N/A   Mostly Cloudy
2:35 PM 16.7 °F 3.2 °F 9.3 °F 73% 30.48 in 10.0 mi West 12.7 mph - N/A   Mostly Cloudy
2:54 PM 16.7 °F 5.3 °F 9.0 °F 72% 30.48 in 10.0 mi WNW 9.2 mph - N/A   Overcast
3:14 PM 16.7 °F 7.2 °F 9.3 °F 73% 30.48 in 10.0 mi WNW 6.9 mph - N/A   Overcast
3:34 PM 16.5 °F 6.0 °F 8.6 °F 71% 30.49 in 10.0 mi NW 8.1 mph - N/A   Overcast
3:54 PM 16.2 °F 5.5 °F 8.8 °F 73% 30.50 in 10.0 mi WNW 8.1 mph - N/A   Overcast
4:15 PM 16.0 °F 6.3 °F 8.8 °F 73% 30.50 in 10.0 mi West 6.9 mph - N/A   Mostly Cloudy
4:34 PM 16.2 °F 5.5 °F 9.0 °F 73% 30.50 in 10.0 mi West 8.1 mph - N/A   Scattered Clouds
4:54 PM 15.8 °F 7.2 °F 8.6 °F 73% 30.51 in 10.0 mi West 5.8 mph - N/A   Scattered Clouds
5:15 PM 14.7 °F 9.0 °F 8.2 °F 75% 30.52 in 10.0 mi NW 3.5 mph - N/A   Scattered Clouds
5:34 PM 15.1 °F - 8.4 °F 75% 30.51 in 10.0 mi Calm Calm - N/A   Clear
5:54 PM 14.7 °F - 8.4 °F 76% 30.52 in 10.0 mi Calm Calm - N/A   Clear
6:15 PM 12.9 °F - 6.4 °F 75% 30.52 in 10.0 mi Calm Calm - N/A   Clear
6:34 PM 11.3 °F - 6.3 °F 80% 30.52 in 10.0 mi Calm Calm - N/A   Clear
6:54 PM 11.5 °F - 7.7 °F 85% 30.52 in 10.0 mi Calm Calm - N/A   Clear
7:15 PM 10.4 °F - 6.4 °F 84% 30.53 in 10.0 mi Calm Calm - N/A   Clear
7:34 PM 10.0 °F - 6.4 °F 85% 30.53 in 10.0 mi Calm Calm - N/A   Scattered Clouds
7:50 PM 11.3 °F - 7.5 °F 85% 30.53 in 10.0 mi Calm Calm - N/A   Mostly Cloudy